Regional Weather Roundup
Issued by NWS Albany, NY

Home | Current Version | Previous Version | Text Only | Print | Product List | Glossary On
Versions: 1 2 3 4 5 6 7 8 9 10 11 12 13 14 15 16 17 18 19 20 21 22 23 24 25 26 27
000
ASUS41 KALY 240610
RWRALY

NEW YORK STATE HOURLY WEATHER ROUNDUP
NATIONAL WEATHER SERVICE ALBANY NY
100 AM EST SAT FEB 24 2018

NOTE: "FAIR" INDICATES FEW OR NO CLOUDS BELOW 12,000 FEET WITH NO
SIGNIFICANT WEATHER AND/OR NO OBSTRUCTIONS TO VISIBILITY.

NYZ032-033-038>043-046>054-057>066-NYZ062>081-082-084-240700-
EAST


CITY           SKY/WX    TMP DP  RH WIND       PRES   REMARKS
ALBANY         DRIZZLE   37  33  85 S7        30.11R WCI  32
GLENS FALLS    CLOUDY    34  34 100 S8        30.08S FOG     WCI  27
POUGHKEEPSIE   CLOUDY    37  36  96 S3        30.14F
NEWBURGH       CLOUDY    39  39 100 W9        30.15F WCI  33
MONTGOMERY     MOCLDY    38  37  97 SW7       30.13S WCI  33
WHITE PLAINS   MOCLDY    40  39  97 W8        30.13F FOG     WCI  34
ISLIP          CLOUDY    41  41 100 W9        30.16S
NEW YORK CITY  CLOUDY    45  40  82 W13G23    30.17R
$$

NYZ005>009-017-018-044>046-055-056-240700-
CENTRAL


CITY           SKY/WX    TMP DP  RH WIND       PRES   REMARKS
FULTON         CLOUDY    44  39  82 W15G22    30.14R
SYRACUSE       LGT RAIN  43  43 100 W10       30.14R
ROME           LGT RAIN  38  38 100 NW5       30.13R FOG     WCI  34
ELMIRA         CLOUDY    37  36  96 SW5       30.14S FOG     WCI  33
BINGHAMTON     FOG       36  36 100 W7        30.10S VSB 1/4 WCI  30
MONTICELLO     FOG       32  32 100 W3        30.13F VSB 1/4
$$

NYZ026>034-041>043-087-240700-
NORTH


CITY           SKY/WX    TMP DP  RH WIND       PRES   REMARKS
WATERTOWN      CLOUDY    39  39 100 SW10      30.11R FOG     WCI  32
FORT DRUM      NOT AVBL
OGDENSBURG     FAIR      40  39  97 SW7       30.06R WCI  35
MASSENA        CLOUDY    42  41  96 SW10      30.04R
SARANAC LAKE   CLOUDY    39  39 100 W10G21    29.99R FOG     WCI  32
PLATTSBURGH    CLOUDY    36  33  89 S7        29.99R WCI  30
$$

NYZ001>004-010>016-019>021-085-240700-
WEST


CITY           SKY/WX    TMP DP  RH WIND       PRES   REMARKS
NIAGARA FALLS  CLOUDY    44  40  85 SW7       30.15R FOG
BUFFALO        FOG       39  39 100 SW7       30.15S VSB 3/4 WCI  34
DUNKIRK        CLOUDY    44  41  89 SW9       30.18S
JAMESTOWN        N/A    N/A N/A N/A MISG        N/A
WELLSVILLE     CLOUDY    46  45  96 W9        30.14R
ROCHESTER      CLOUDY    45  44  97 W8        30.14R
PENN YAN       CLOUDY    47  41  80 W6        30.14R
$$

             KEY
       WCI = WIND CHILL INDEX
       VSB = VISIBILITY
       HX  = HEAT INDEX
$$




USA.gov is the U.S. government's official web portal to all federal, state and local government web resources and services.